Location: Fort Worth, Tx
(32.7431°N, 97.3695°W)
Time: 19:31:47
(UTC-04:00)

Max Valier Satellite - Pass Details

Date: 30 March 2023
Orbit: 444 x 458 km, 97.2° (Epoch: 04 June)

Event Time Altitude Azimuth Distance (km) Brightness Sun altitude
Rises 12:24:58 0° 310° (NW) 2,501 ? 48.2°
Enters shadow 13:07:03 -72° 159° (SSE) 12,612 ? 54.7°
Exits shadow 13:29:33 -52° 47° (NE) 10,662 ? 57.4°
Maximum altitude 21:22:02 19° 72° (ENE) 1,140 ? -7.9°
